Home   Weather   Lohne (Oldenburg)   Past weeks

Flag for Germany Past Weather in Lohne (Oldenburg), Lower Saxony, Germany — Yesterday and Last 2 Weeks

Now
57 °F

Passing clouds.


Feels Like: 55 °F
Forecast: 53 / 69 °F
Wind: 8 mph from Southwest

Location: Bremen Airport

Current Time: Aug 20, 2017 at 9:24:18 pm

Latest Report: Aug 20, 2017 at 8:50 pm


Visibility: N/A

Pressure: 30.15 "Hg

Humidity: 94%

Dew Point: 55 °F

Location of Lohne (Oldenburg)Location

Past Weather in Lohne (Oldenburg) — Graph

°F

Lohne (Oldenburg) Temperature Yesterday

Maximum temperature yesterday: 66 °F (at 2:50 pm)
Minimum temperature yesterday: 54 °F (at 5:20 am)
Average temperature yesterday: 58 °F

High & Low Weather Summary for the Past Weeks

 TemperatureHumidityPressure
High79 °F (Aug 15, 12:20 pm)100% (Aug 7, 2:20 am)30.24 "Hg (Aug 7, 2:20 am)
Low45 °F (Aug 14, 2:20 am)38% (Aug 7, 2:20 pm)29.77 "Hg (Aug 8, 4:50 pm)
Average62 °F80%30.02 "Hg
* Reported Aug 5 7:20 pm — Aug 20 7:53 pm, Lohne (Oldenburg). Weather by CustomWeather, © 2017

Note: Actual official high and low records may vary slightly from our data, if they occured in-between our weather recording intervals... More about our weather records

Advertising

Lohne (Oldenburg) Weather History for the Previous 24 Hours

Scroll right to see more
 ConditionsComfort  
Time TempWeatherWind HumidityBarometerVisibility
7:53 pm
Sun, Aug 20
57 °FSprinkles. Broken clouds.10 mph94%30.15 "HgN/A
7:50 pm57 °FRain showers. Broken clouds.9 mph94%30.15 "HgN/A
7:20 pm57 °FPartly sunny.8 mph94%30.12 "HgN/A
6:50 pm57 °FPartly sunny.8 mph94%30.15 "HgN/A
6:20 pm57 °FBroken clouds.7 mph94%30.15 "HgN/A
5:50 pm55 °FSprinkles. Broken clouds.8 mph94%30.15 "HgN/A
5:20 pm57 °FSprinkles. Broken clouds.12 mph88%30.15 "HgN/A
4:50 pm57 °FSprinkles. Broken clouds.13 mph94%30.15 "Hg4 mi
4:20 pm61 °FRain showers. Broken clouds.10 mph88%30.12 "Hg4 mi
3:50 pm61 °FSprinkles. Broken clouds.13 mph83%30.12 "HgN/A
2:50 pm55 °FSprinkles. Broken clouds.10 mph94%30.12 "HgN/A
2:30 pm57 °FThunderstorms. Partly sunny.21 mph82%30.12 "Hg2 mi
2:20 pm64 °FSprinkles. Broken clouds.21 mph73%30.12 "Hg6 mi
1:50 pm64 °FScattered showers. Scattered clouds.17 mph78%30.09 "HgN/A
1:20 pm63 °FSprinkles. Partly sunny.21 mph77%30.09 "HgN/A
12:50 pm61 °FSprinkles. Partly sunny.14 mph83%30.09 "HgN/A
12:20 pm63 °FSprinkles. Broken clouds.20 mph73%30.09 "HgN/A
11:50 am63 °FScattered clouds.18 mph73%30.09 "HgN/A
11:32 am63 °FScattered clouds.16 mph73%30.09 "HgN/A
11:20 am63 °FScattered clouds.18 mph73%30.09 "HgN/A
11:03 am64 °FScattered clouds.16 mph73%30.09 "HgN/A
10:50 am63 °FScattered clouds.17 mph73%30.09 "HgN/A
10:20 am63 °FPassing clouds.17 mph73%30.09 "HgN/A
9:50 am61 °FPassing clouds.14 mph77%30.09 "HgN/A
9:20 am59 °FPassing clouds.13 mph82%30.07 "HgN/A
8:50 am57 °FScattered clouds.12 mph88%30.07 "HgN/A
8:20 am55 °FSprinkles. Partly sunny.12 mph94%30.07 "HgN/A
7:50 am55 °FScattered showers. Broken clouds.12 mph88%30.07 "HgN/A
7:20 am55 °FPartly sunny.9 mph88%30.07 "HgN/A
6:50 am54 °FPassing clouds.9 mph88%30.07 "HgN/A
6:20 am54 °FSunny.10 mph88%30.04 "Hg10 mi
5:50 am54 °FClear.9 mph94%30.04 "Hg10 mi
5:20 am54 °FClear.8 mph94%30.04 "Hg10 mi
4:50 am55 °FClear.8 mph88%30.04 "Hg10 mi
4:20 am55 °FClear.8 mph88%30.04 "Hg10 mi
3:20 am54 °FPassing clouds.7 mph94%30.04 "HgN/A
2:50 am54 °FPartly cloudy.8 mph94%30.04 "HgN/A
2:20 am55 °FPassing clouds.9 mph88%30.04 "HgN/A
1:50 am55 °FOvercast.8 mph94%30.04 "HgN/A
1:20 am55 °FOvercast.8 mph94%30.04 "HgN/A
12:50 am55 °FPassing clouds.12 mph94%30.04 "HgN/A
12:20 am55 °FScattered showers. Passing clouds.8 mph94%30.04 "HgN/A
11:50 pm
Sat, Aug 19
57 °FClear.7 mph88%30.04 "Hg10 mi
11:20 pm57 °FClear.9 mph88%30.04 "Hg10 mi
10:50 pm54 °FClear.7 mph94%30.04 "Hg10 mi
10:20 pm55 °FClear.6 mph88%30.04 "Hg10 mi
9:50 pm55 °FClear.7 mph88%30.04 "Hg10 mi
9:20 pm55 °FPassing clouds.8 mph88%30.04 "HgN/A
Weather by CustomWeather, © 2017

See weather overviewHow to use our weather pages